TimeEDT,TemperatureF,Dew PointF,Humidity,Sea Level PressureIn,VisibilityMPH,Wind Direction,Wind SpeedMPH,Gust SpeedMPH,PrecipitationIn,Events,Conditions,WindDirDegrees,DateUTC
12:06 AM,37.4,23.0,56,29.92,10.0,WNW,10.4,-,N/A,,Clear,290,2013-03-20 04:06:00
12:27 AM,37.4,23.0,56,29.93,10.0,West,6.9,-,N/A,,Clear,280,2013-03-20 04:27:00
12:48 AM,37.4,23.0,56,29.94,10.0,West,11.5,-,N/A,,Clear,280,2013-03-20 04:48:00
1:06 AM,37.4,23.0,56,29.94,10.0,West,8.1,-,N/A,,Clear,270,2013-03-20 05:06:00
1:27 AM,35.6,23.0,60,29.96,10.0,West,8.1,-,N/A,,Clear,260,2013-03-20 05:27:00
1:48 AM,35.6,23.0,60,29.97,10.0,West,9.2,-,N/A,,Clear,280,2013-03-20 05:48:00
2:06 AM,35.6,23.0,60,29.97,10.0,West,10.4,-,N/A,,Clear,270,2013-03-20 06:06:00
2:27 AM,37.4,23.0,56,29.98,10.0,West,9.2,-,N/A,,Clear,270,2013-03-20 06:27:00
2:48 AM,35.6,23.0,60,29.98,10.0,West,8.1,-,N/A,,Clear,260,2013-03-20 06:48:00
3:06 AM,37.4,21.2,52,29.98,10.0,West,9.2,-,N/A,,Clear,270,2013-03-20 07:06:00
3:27 AM,37.4,19.4,48,29.98,10.0,WSW,4.6,-,N/A,,Clear,250,2013-03-20 07:27:00
3:48 AM,37.4,19.4,48,29.98,10.0,WSW,3.5,-,N/A,,Clear,240,2013-03-20 07:48:00
4:06 AM,37.4,19.4,48,29.98,10.0,Calm,Calm,-,N/A,,Clear,0,2013-03-20 08:06:00
4:27 AM,37.4,19.4,48,29.97,10.0,Calm,Calm,-,N/A,,Clear,0,2013-03-20 08:27:00
4:48 AM,35.6,19.4,52,29.97,10.0,WSW,4.6,-,N/A,,Clear,250,2013-03-20 08:48:00
5:06 AM,35.6,17.6,48,29.97,10.0,WSW,4.6,-,N/A,,Clear,250,2013-03-20 09:06:00
5:27 AM,35.6,17.6,48,29.98,10.0,WSW,4.6,-,N/A,,Clear,240,2013-03-20 09:27:00
5:33 AM,35.6,17.6,48,29.98,10.0,WSW,5.8,-,N/A,,Clear,240,2013-03-20 09:33:00
5:45 AM,37.4,15.8,41,29.98,10.0,WSW,4.6,-,N/A,,Clear,250,2013-03-20 09:45:00
6:45 AM,35.6,15.8,44,29.99,10.0,West,3.5,-,N/A,,Clear,260,2013-03-20 10:45:00
8:45 AM,39.2,15.8,39,29.99,10.0,WSW,9.2,-,N/A,,Clear,250,2013-03-20 12:45:00
9:45 AM,41.0,15.8,36,30.00,10.0,WSW,13.8,24.2,N/A,,Clear,250,2013-03-20 13:45:00
10:45 AM,44.6,15.8,31,29.99,10.0,West,13.8,25.3,N/A,,Clear,260,2013-03-20 14:45:00
11:45 AM,46.4,15.8,29,29.97,10.0,West,17.3,25.3,N/A,,Clear,270,2013-03-20 15:45:00
12:54 PM,48.2,15.8,27,29.95,10.0,WSW,17.3,25.3,N/A,,Scattered Clouds,240,2013-03-20 16:54:00
1:45 PM,48.2,14.0,25,29.92,10.0,WSW,9.2,19.6,N/A,,Scattered Clouds,250,2013-03-20 17:45:00
2:50 PM,50.0,14.0,24,29.88,10.0,WSW,11.5,25.3,N/A,,Scattered Clouds,240,2013-03-20 18:50:00
3:45 PM,50.0,15.8,26,29.85,10.0,WSW,12.7,23.0,N/A,,Scattered Clouds,240,2013-03-20 19:45:00
4:55 PM,50.0,14.0,24,29.83,10.0,SW,12.7,20.7,N/A,,Scattered Clouds,220,2013-03-20 20:55:00
5:55 PM,51.8,12.2,21,29.80,10.0,SW,6.9,17.3,N/A,,Mostly Cloudy,230,2013-03-20 21:55:00
6:50 PM,50.0,15.8,26,29.80,10.0,WSW,8.1,-,N/A,,Mostly Cloudy,240,2013-03-20 22:50:00
7:50 PM,50.0,17.6,28,29.80,10.0,South,8.1,-,N/A,,Mostly Cloudy,190,2013-03-20 23:50:00
8:55 PM,50.0,17.6,28,29.80,10.0,WSW,11.5,20.7,N/A,,Mostly Cloudy,240,2013-03-21 00:55:00
9:45 PM,46.4,30.2,53,29.81,10.0,South,10.4,-,N/A,,Mostly Cloudy,180,2013-03-21 01:45:00
10:09 PM,46.4,24.8,43,29.81,10.0,SE,5.8,-,N/A,,Clear,140,2013-03-21 02:09:00
10:30 PM,46.4,19.4,34,29.80,10.0,NW,6.9,-,N/A,,Clear,320,2013-03-21 02:30:00
10:51 PM,46.4,19.4,34,29.81,10.0,NW,10.4,-,N/A,,Clear,310,2013-03-21 02:51:00
11:09 PM,44.6,19.4,37,29.80,10.0,NNW,4.6,-,N/A,,Clear,330,2013-03-21 03:09:00
11:30 PM,44.6,19.4,37,29.81,10.0,NNW,6.9,-,N/A,,Clear,330,2013-03-21 03:30:00
11:51 PM,42.8,21.2,42,29.82,10.0,NNW,9.2,-,N/A,,Clear,330,2013-03-21 03:51:00